"Pseudo-MPEC" for P12oEGq

Created 2026 Jul 28 21:35:08 UT using Find_Orb

Click here for an explanation of pseudo-MPECs

 
 Astrometry: 
     P12oEGq*0C2026 07 25.57843323 58 46.361-06 37 33.95   ~7RJZ 21.79wXNEOCPF51
     P12oEGq 0C2026 07 25.58907123 58 47.011-06 37 34.33   ~7RJZ 21.83wXNEOCPF51
     P12oEGq 0C2026 07 25.61049123 58 48.298-06 37 33.97   ~7RJZ 21.86wXNEOCPF51

Station data:
(F51) Pan-STARRS 1, Haleakala  (N20.707234 W156.255910)  US/Hawaii.
   Observers J. Herman, T. Lowe, P. Minguez, A. Schultz, I. Smith. Measurers
   K. Chambers, T. de Boer, J. Fairlamb, H. Gao, M. Huber, C.-C. Lin, E.
   Magnier, Y. Ramanjooloo, R. Wainscoat, R. Weryk. 1.8-m Ritchey-Chrétien +
   CCD.

Orbital elements:  P12oEGq
   Perihelion 2026 Oct 4.819488 +/- 54.6 TT = 19:40:03.8 (JD 2461318.319488)
Epoch 2026 Jul 26.0 TT = JDT 2461247.5   Earth MOID: 0.0287   Ve: 0.0331
M 310.644199324 +/- 46              Me: 0.0281   Ma: 0.0116      AutoNEOCP
n   0.696923993 +/- 0.583           Peri.  119.386559 +/- 90
a   1.259928127 +/- 0.702           Node   355.397585 +/- 60
e   0.86180830 +/- 0.269            Incl.    4.233705 +/- 42
P   1.414/516.546d         H 20.70  G  0.15   U 12.4  SR
q 0.174111608 +/- 0.654    Q 2.345744646 +/- 35.3         (J2000 ecliptic)
From 3 observations 2026 July 25 (46.2 min); mean residual 0".13
Residuals in arcseconds: 
260725 F51  .05-  .16+    260725 F51  .07+  .24-    260725 F51  .04-  .07+    

Ephemerides (geocentric):
Date (UTC) HH   RA             Dec           delta  r     elong  mag " sig PA
---- --------  ------------   ------------  ------ ------ -----  --- --------
2026 07 28 22  00 02 35.348   -06 39 02.48  .50499 1.3809 127.3 21.4  39d  93
2026 07 28 23  00 02 38.315   -06 39 05.08  .50420 1.3804 127.3 21.4  39d  93
2026 07 29 00  00 02 41.285   -06 39 07.73  .50342 1.3799 127.3 21.4  39d  93
2026 07 29 01  00 02 44.259   -06 39 10.41  .50263 1.3794 127.3 21.4  40d  93
2026 07 29 02  00 02 47.235   -06 39 13.13  .50184 1.3789 127.4 21.4  40d  93
2026 07 29 03  00 02 50.215   -06 39 15.88  .50105 1.3784 127.4 21.4  41d  93
2026 07 29 04  00 02 53.198   -06 39 18.68  .50026 1.3779 127.4 21.4  41d  93
2026 07 29 05  00 02 56.184   -06 39 21.51  .49948 1.3774 127.5 21.3  42d  93
2026 07 29 06  00 02 59.173   -06 39 24.38  .49869 1.3769 127.5 21.3  42d  93
2026 07 29 07  00 03 02.166   -06 39 27.30  .49790 1.3764 127.5 21.3  42d  93
2026 07 29 08  00 03 05.162   -06 39 30.25  .49712 1.3759 127.5 21.3  43d  93
2026 07 29 09  00 03 08.162   -06 39 33.24  .49633 1.3754 127.6 21.3  43d  93
2026 07 29 10  00 03 11.164   -06 39 36.27  .49554 1.3749 127.6 21.3  44d  93
2026 07 29 11  00 03 14.170   -06 39 39.34  .49475 1.3744 127.6 21.3  44d  93
2026 07 29 12  00 03 17.180   -06 39 42.45  .49397 1.3739 127.7 21.3  44d  93
2026 07 29 13  00 03 20.193   -06 39 45.60  .49318 1.3734 127.7 21.3  45d  93
2026 07 29 14  00 03 23.209   -06 39 48.78  .49239 1.3729 127.7 21.3  45d  93
2026 07 29 15  00 03 26.229   -06 39 52.01  .49161 1.3724 127.7 21.3  45d  93
2026 07 29 16  00 03 29.252   -06 39 55.28  .49082 1.3719 127.8 21.3  45d  93
2026 07 29 17  00 03 32.278   -06 39 58.59  .49003 1.3714 127.8 21.3  45d  93
2026 07 29 18  00 03 35.309   -06 40 01.94  .48925 1.3709 127.8 21.3  45d  93
2026 07 29 19  00 03 38.342   -06 40 05.33  .48846 1.3703 127.9 21.3  45d  93
2026 07 29 20  00 03 41.380   -06 40 08.77  .48768 1.3698 127.9 21.3  45d  93
2026 07 29 21  00 03 44.421   -06 40 12.24  .48689 1.3693 127.9 21.3  45d  93
2026 07 29 22  00 03 47.465   -06 40 15.75  .48610 1.3688 127.9 21.3  45d  93
2026 07 29 23  00 03 50.513   -06 40 19.31  .48532 1.3683 128.0 21.3  45d  93
2026 07 30 00  00 03 53.565   -06 40 22.91  .48453 1.3678 128.0 21.3  45d  93
2026 07 30 01  00 03 56.621   -06 40 26.54  .48375 1.3673 128.0 21.3  46d  93
2026 07 30 02  00 03 59.680   -06 40 30.22  .48296 1.3668 128.0 21.3  46d  93
2026 07 30 03  00 04 02.743   -06 40 33.95  .48218 1.3663 128.1 21.3  46d  93
2026 07 30 04  00 04 05.809   -06 40 37.71  .48139 1.3658 128.1 21.3  46d  93
2026 07 30 05  00 04 08.880   -06 40 41.52  .48061 1.3653 128.1 21.2  46d  93
2026 07 30 06  00 04 11.954   -06 40 45.37  .47982 1.3648 128.2 21.2  47d  93
2026 07 30 07  00 04 15.032   -06 40 49.26  .47904 1.3643 128.2 21.2  47d  93
2026 07 30 08  00 04 18.114   -06 40 53.19  .47825 1.3638 128.2 21.2  47d  93
2026 07 30 09  00 04 21.199   -06 40 57.17  .47747 1.3633 128.2 21.2  47d  93
2026 07 30 10  00 04 24.289   -06 41 01.19  .47668 1.3628 128.3 21.2  48d  93
2026 07 30 11  00 04 27.382   -06 41 05.25  .47590 1.3623 128.3 21.2  48d  93
2026 07 30 12  00 04 30.480   -06 41 09.36  .47511 1.3618 128.3 21.2  48d  93
2026 07 30 13  00 04 33.581   -06 41 13.51  .47433 1.3613 128.4 21.2  49d  93
2026 07 30 14  00 04 36.686   -06 41 17.70  .47355 1.3607 128.4 21.2  49d  93
2026 07 30 15  00 04 39.796   -06 41 21.94  .47276 1.3602 128.4 21.2  49d  93
2026 07 30 16  00 04 42.909   -06 41 26.22  .47198 1.3597 128.4 21.2  50d  93
2026 07 30 17  00 04 46.027   -06 41 30.55  .47119 1.3592 128.5 21.2  50d  93
2026 07 30 18  00 04 49.148   -06 41 34.92  .47041 1.3587 128.5 21.2  50d  93
2026 07 30 19  00 04 52.274   -06 41 39.33  .46963 1.3582 128.5 21.2  50d  93
2026 07 30 20  00 04 55.404   -06 41 43.79  .46884 1.3577 128.5 21.2  50d  93
2026 07 30 21  00 04 58.538   -06 41 48.29  .46806 1.3572 128.6 21.2  50d  93